Location: ??
(35.5052°N, 139.7262°E)
Time: 19:20:06
(UTC+00:00)

NOSS 3-2 (A) - Visible Passes

Search period start: 16 October 2021 00:00
Search period end: 26 October 2021 00:00
Orbit: 767 x 1440 km, 63.4° (Epoch: 15 October)

Date Brightness Start Highest point End Pass type
(mag) Time Alt. Az. Time Alt. Az. Time Alt. Az.
20 Oct 6.4 12:15:38 10° NNW 12:15:44 10° NNW 12:15:44 10° NNW visible
21 Oct 6.1 11:30:46 10° N 11:31:39 13° N 11:31:39 13° N visible
22 Oct 6.0 10:46:13 10° N 10:47:36 13° NNE 10:47:36 13° NNE visible
23 Oct 6.1 11:49:55 10° NNW 11:50:57 14° NNW 11:50:57 14° NNW visible
24 Oct 5.8 11:04:57 10° N 11:06:56 17° N 11:06:56 17° N visible
25 Oct 5.7 10:20:12 10° N 10:22:58 16° NNE 10:22:58 16° NNE visible
25 Oct 6.2 12:09:30 10° NNW 12:10:22 14° NNW 12:10:22 14° NNW visible
